Regional Weather Roundup
Issued by NWS

Home | Current Version | Previous Version | Graphics & Text | Print | Product List | Glossary On
Versions: 1 2 3 4 5 6 7 8 9 10 11 12 13 14 15 16 17 18 19 20 21 22 23 24 25 26 27 28 29 30 31 32 33 34 35 36 37 38 39 40 41 42 43 44 45 46 47 48 49 50
000
ASUS43 KMPX 291601
RWRMN
WEATHER ROUNDUP FOR MINNESOTA
NATIONAL WEATHER SERVICE TWIN CITIES/CHANHASSEN MN
1100 AM CDT FRI JUL 29 2016


NOTE: "FAIR" INDICATES FEW OR NO CLOUDS BELOW 12,000 FEET WITH NO
SIGNIFICANT WEATHER AND/OR OBSTRUCTIONS TO VISIBILITY. N/A MEANS
CURRENT SKY AND/OR WEATHER CONDITIONS ARE NOT AVAILABLE.

MNZ060>063-068>070-291700-
   Twin Cities Metro

CITY           SKY/WX    TMP DP  RH WIND       PRES   REMARKS
TWIN CITIES    MOSUNNY   72  54  53 NE3       30.08S
ST PAUL        SUNNY     72  54  53 CALM      30.08S
CRYSTAL        SUNNY     72  48  42 N9        30.08R
BLAINE         MOSUNNY   72  54  53 E6        30.09R
LAKEVILLE      SUNNY     70  59  68 NE3       30.08S
EDEN PRAIRIE   SUNNY     74  54  49 NE8       30.08R
LAKEVILLE      SUNNY     70  59  68 NE3       30.08S
SOUTH ST PAUL  SUNNY     71  52  51 E6        30.08S
LAKE ELMO      FAIR      70  54  56 CALM      30.09S
$$
MNZ001>005-007-008-013>017-022>024-027-028-291700-
   Northwest Minnesota

CITY           SKY/WX    TMP DP  RH WIND       PRES   REMARKS
HALLOCK        SUNNY     72  57  60 CALM      30.09S HAZE
ROSEAU         SUNNY     73  61  64 CALM      30.09S
WARROAD        SUNNY     72  64  78 NE7       30.10R
THIEF RVR FALL SUNNY     72  55  55 N6        30.10S
CROOKSTON      SUNNY     72  57  60 CALM      30.10S
FOSSTON        SUNNY     72  55  56 NW3       30.10S
DETROIT LAKES  MOSUNNY   72  61  68 SW5       30.11R
MOORHEAD       SUNNY     72  57  60 CALM      30.09S
PARK RAPIDS    MOSUNNY   73  58  59 S5        30.10S
MAHNOMEN       FAIR      72  58  61 SW3       30.09S
$$
MNZ006-009>011-018-025>026-291700-
   North Central Minnesota

CITY           SKY/WX    TMP DP  RH WIND       PRES   REMARKS
BAUDETTE       SUNNY     75  58  55 CALM      30.08S
FLAG ISLAND    SUNNY     72  55  56 CALM      30.08S
INTL FALLS     SUNNY     72  58  61 SE6       30.09S
WASKISH        SUNNY     73  63  68 W3        30.09R
BIG FORK       SUNNY     73  55  53 S6        30.11R
LONGVILLE      SUNNY     72  55  56 SE5       30.11S
GRAND RAPIDS   MOSUNNY   71  53  52 S7        30.13S
CRANE LAKE     SUNNY     70  55  60 S3        30.12F
ORR            SUNNY     72  54  53 CALM      30.09S
COOK           SUNNY     70  55  60 E3        30.12S
WALKER         PTSUNNY   70  56  61 S6        30.10S
$$
MNZ012-019>021-037-291700-
   Northeast Minnesota

CITY           SKY/WX    TMP DP  RH WIND       PRES   REMARKS
DULUTH         SUNNY     69  50  50 SE10      30.12S
ELY            SUNNY     70  52  52 SE5       30.12S
HIBBING        SUNNY     70  51  51 CALM      30.11F
EVELETH        SUNNY     73  51  46 E6        30.13S
DULUTH HARBOR  SUNNY     64  57  77 NE5       30.12S
TWO HARBORS    SUNNY     73  57  56 E7        30.10S
SILVER BAY     SUNNY     72  54  53 E7        30.11
GRAND MARAIS     N/A     66  55  67 E3        30.12S
G MARAIS ARPRT MOSUNNY   68  52  56 SE5       30.15S
$$
MNZ029>031-032-039>041-046>048-054>057-064-291700-
   West Central Minnesota

CITY           SKY/WX    TMP DP  RH WIND       PRES   REMARKS
FERGUS FALLS   MOSUNNY   73  64  73 S6        30.10S
WHEATON        MOSUNNY   75  66  73 CALM      30.11S
MORRIS         SUNNY     75  55  50 SE5       30.10S
ALEXANDRIA     SUNNY     72  56  57 E3        30.13R
ELBOW LAKE     FAIR      71  62  71 SW6       30.11S
WADENA         SUNNY     72  59  64 CALM      30.10S
GLENWOOD       SUNNY     73  54  49 E7        30.12S
APPLETON       SUNNY     73  55  53 E3        30.10S
BENSON         PTSUNNY   72  54  53 SE3       30.11S
ORTONVILLE     CLOUDY    72  57  60 SE3       30.11R
MADISON        SUNNY     72  57  60 E3        30.11S
WILLMAR        FAIR      73  57  56 E9        30.13R
$$
MNZ033>034-036-042>043-049>051-058-059-291700-
   Central Minnesota

CITY           SKY/WX    TMP DP  RH WIND       PRES   REMARKS
ST CLOUD       SUNNY     70  52  52 NE5       30.11R
SAUK CENTRE    FAIR      70  55  59 E3        30.12S
PAYNESVILLE    SUNNY     71  56  60 E3        30.12R
AITKIN         SUNNY     73  52  46 SE3       30.10S
PINE RIVER     SUNNY     72  55  56 SE5       30.14S
BRAINERD       SUNNY     71  53  52 E3        30.11S
STAPLES        SUNNY     72  52  49 SE3       30.11R
LONG PRAIRIE   FAIR      70  54  56 E5        30.13R
LITTLE FALLS   PTSUNNY   70  50  49 E3        30.12R
LITCHFIELD     SUNNY     72  63  73 E6        30.11S
BUFFALO        SUNNY     70  51  51 NE7       30.12R
MAPLE LAKE     SUNNY     71  57  61 NE3       30.11F
HUTCHINSON     SUNNY     72  58  62 N7        30.11S
$$
MNZ037-044-045-052-053-291700-
   East Central Minnesota

CITY           SKY/WX    TMP DP  RH WIND       PRES   REMARKS
PRINCETON      SUNNY     72  55  56 N5        30.11R
MORA           SUNNY     68  54  60 CALM      30.13R
CAMBRIDGE      SUNNY     70  54  56 NE7       30.09R
RUSH CITY      SUNNY     69  53  55 E6        30.11R
MOOSE LAKE     SUNNY     68  52  56 E5        30.11R
HINCKLEY       FAIR      70  52  52 E8        30.11S
CLOQUET        SUNNY     70  48  46 E8        30.12R
MCGREGOR       SUNNY     72  54  53 NE6       30.12S
$$
MNZ071>073-080-081-089-090-097-098-291700-
   Southwest Minnesota

CITY           SKY/WX    TMP DP  RH WIND       PRES   REMARKS
MONTEVIDEO     SUNNY     75  57  53 E5        30.13R
GRANITE FALLS  SUNNY     73  61  64 N7        30.13R
CANBY          SUNNY     73  58  57 SE3       30.13R
MARSHALL       SUNNY     70  59  68 NE7       30.12R
REDWOOD FALLS  SUNNY     73  58  59 NE7       30.10R
OLIVIA         SUNNY     72  59  64 CALM      30.10R
PIPESTONE      SUNNY     72  55  56 E6        30.13R
WINDOM         CLOUDY    70  59  68 N7        30.10S
WORTHINGTON    CLOUDY    70  58  65 N7        30.12R
JACKSON        PTSUNNY   68  59  73 CALM      30.11R
TRACY          SUNNY     69  60  72 NE6       30.12S
SLAYTON        SUNNY     69  58  67 NE5       30.13R
$$
MNZ065>067-074>077-082>085-091>093-291700-
   South Central Minnesota

CITY           SKY/WX    TMP DP  RH WIND       PRES   REMARKS
MANKATO        SUNNY     70  59  68 N7        30.08S
NEW ULM        SUNNY     72  57  60 N8        30.08F
ST JAMES       CLOUDY    66  57  72 NW6       30.09S
FAIRMONT       CLOUDY    66  61  82 N6        30.08R
GLENCOE        SUNNY     72  60  67 NE3       30.09S
FARIBAULT      CLOUDY    72  63  73 N6        30.08S
OWATONNA       MOSUNNY   70  61  73 NE7       30.07S
WASECA         CLOUDY    68  61  77 N8        30.09S
ALBERT LEA     CLOUDY    68  63  83 NE7       30.07R
$$
MNZ078>079-086>088-094>096-291700-
   Southeast Minnesota

CITY           SKY/WX    TMP DP  RH WIND       PRES   REMARKS
ROCHESTER      CLOUDY    68  61  78 NE8       30.06S
RED WING       CLOUDY    70  54  56 N3        30.05S
STANTON        PTSUNNY   72  59  64 NE6       30.06S
DODGE CENTER   MOSUNNY  N/A N/A N/A N9        30.07R
WINONA         PTSUNNY   72  61  68 N3        30.04S
AUSTIN         CLOUDY    68  59  73 NE8       30.05S
PRESTON        CLOUDY    64  58  80 NE7       30.05R
$$
ABBREVIATIONS USED IN REMARKS
   TC - TEMPERATURES IN CELSIUS
  WCI - WIND CHILL INDEX
   HX - HEAT INDEX
  VSB - VISIBILITY
$$




USA.gov is the U.S. government's official web portal to all federal, state and local government web resources and services.